Temperature
16 16 16 16 14 12 13 14 15 15 15 16 16 15 14 14 15 14 13 13 13 14 14 14 14 14 14 14 15 15 15 15 15 15 14 14 14 14 15 14 15 14 14 14 14 14 14 14 14
16 16 16 16 12 12 13 13 14 15 16 16 16 15 14 13 13 13 13 13 13 13 13 13 14 14 14 14 14 14 15 14 14 14 14 14 14 14 14 14 14 14 14 14 14 14 14 14 14
15 16 16 12 12 12 14 14 14 15 16 16 15 14 13 13 13 13 13 13 13 13 13 13 13 13 14 14 14 14 14 14 14 14 14 14 14 14 14 14 14 14 14 14 14 14 14 14 14
15 16 15 12 13 13 14 14 14 15 16 16 15 13 12 12 13 13 13 13 13 13 13 13 13 13 13 14 14 14 14 14 14 14 14 14 14 13 13 14 14 14 14 14 14 14 14 14 14
15 15 12 12 13 13 13 14 15 14 14 15 14 12 11 12 12 13 13 13 13 13 13 13 13 13 13 13 13 13 13 13 13 13 13 13 13 13 13 13 13 13 13 13 13 13 13 14 13
15 12 11 11 13 13 14 15 15 13 14 14 13 11 11 12 12 12 12 12 13 13 13 13 13 13 13 13 13 13 13 13 13 13 13 13 13 13 13 13 13 13 13 13 13 13 13 13 13
14 11 11 12 12 13 14 15 14 13 13 13 13 11 10 11 12 11 11 12 12 12 12 12 12 12 12 12 13 13 13 13 13 13 13 13 13 12 12 12 13 13 13 13 13 13 13 13 13
14 11 12 12 12 13 14 14 14 13 13 13 13 11 10 11 11 11 11 11 12 12 12 12 12 12 12 12 12 12 12 12 12 12 12 12 12 12 12 12 12 12 12 13 13 12 13 13 13
14 10 11 12 12 12 13 13 13 13 13 12 12 12 12 11 11 11 11 11 11 11 11 11 11 11 12 12 12 12 12 12 12 12 12 12 12 12 12 12 12 12 12 12 12 12 12 12 12
13 10 11 12 12 12 12 12 12 12 11 11 11 11 11 11 11 11 11 11 11 11 11 11 11 11 11 11 11 11 11 11 11 11 11 11 11 11 11 11 11 12 12 12 12 12 12 12 12
11 10 11 11 12 12 12 11 12 11 10 11 11 11 11 11 11 11 11 11 11 11 11 11 11 11 11 11 11 11 11 11 11 11 11 11 11 11 11 11 11 11 11 11 11 11 11 11 11
11 10 11 11 12 12 11 11 10 10 11 11 11 11 11 11 11 11 11 11 10 10 10 10 10 10 10 10 11 11 11 11 11 11 11 11 11 11 11 11 11 11 11 11 11 11 11 11 11
10 10 11 11 11 11 10 10 9 10 11 11 11 10 10 10 10 10 10 10 10 10 10 10 10 10 10 10 10 10 10 10 10 10 10 10 10 10 10 10 10 10 10 10 10 10 10 10 10
10 10 10 10 10 10 9 9 9 9 10 10 10 10 10 10 10 10 10 10 10 10 10 10 9 9 9 9 10 10 10 10 10 10 10 10 10 10 10 10 10 10 10 10 10 10 10 10 10
10 9 9 10 10 9 9 8 7 9 9 9 9 9 9 9 9 9 10 10 10 9 9 9 9 9 9 9 9 9 9 9 9 9 9 9 9 9 9 9 9 9 9 9 9 9 9 9 9
9 9 8 9 9 9 9 8 8 9 8 8 8 8 8 9 9 9 9 9 9 9 9 9 8 8 8 8 8 9 9 9 9 9 9 9 9 9 9 9 9 9 9 9 9 9 9 9 9
8 7 8 9 9 8 8 7 7 8 8 7 7 7 8 8 8 8 8 8 9 9 9 8 8 8 8 8 8 8 8 8 8 8 8 8 8 8 8 8 8 8 8 8 8 8 8 8 8
7 7 8 8 8 7 7 6 6 7 7 6 7 7 7 7 7 8 8 8 8 8 8 8 8 7 7 7 7 7 7 7 7 7 8 8 8 8 8 8 8 8 8 8 8 8 8 8 8
8 7 7 7 8 7 6 6 6 6 6 5 5 6 6 6 6 7 7 8 8 7 7 7 7 7 7 7 7 7 7 7 7 7 7 7 7 7 7 7 7 7 7 7 7 7 7 7 7
7 7 6 7 7 7 5 5 6 5 5 5 5 5 5 6 6 6 7 7 7 7 7 7 7 7 6 6 6 6 6 6 6 6 6 6 6 6 7 7 7 7 7 6 6 6 6 6 6
7 6 6 6 6 6 5 5 5 5 5 5 5 5 5 5 6 6 6 6 6 6 6 6 6 6 6 6 6 5 5 5 5 5 6 6 6 6 6 6 6 6 6 6 6 6 6 6 6
6 6 6 6 5 4 5 5 5 5 4 4 4 5 5 5 5 6 6 6 6 6 6 6 6 6 6 5 5 5 5 5 5 5 5 5 5 5 5 5 5 5 5 5 5 5 5 5 5
6 6 5 5 5 4 4 4 5 4 4 4 3 4 4 4 5 5 5 5 5 5 5 5 5 5 5 5 5 5 4 4 4 5 4 4 4 4 4 4 5 5 5 5 5 5 5 5 5
5 5 4 3 3 4 4 4 4 3 4 4 3 4 4 4 4 4 5 5 5 5 5 5 5 4 4 4 4 4 4 4 4 4 4 4 4 4 4 4 4 4 4 4 4 4 4 4 4
4 4 4 4 3 4 4 4 4 4 3 3 3 4 4 4 3 4 4 4 4 4 4 4 4 4 4 4 3 3 3 3 3 3 3 3 3 3 3 3 3 3 3 3 3 3 3 3 3
3 4 4 4 4 3 3 3 4 3 3 3 4 3 3 3 3 3 3 3 3 3 3 3 3 3 3 3 3 3 2 2 2 2 2 2 2 2 2 2 3 3 2 2 2 2 2 2 2
3 3 3 2 2 2 2 2 3 3 2 2 2 2 2 3 3 3 3 3 3 3 3 3 3 3 2 2 2 2 2 2 1 1 1 1 2 2 2 2 2 2 2 2 2 2 2 2 2
3 2 1 2 2 2 2 2 3 3 2 1 0 1 2 2 2 2 2 2 2 2 2 2 2 2 2 2 2 1 1 1 1 1 1 1 1 1 1 1 1 1 1 1 1 1 1 1 1
2 2 1 0 1 1 1 3 2 2 2 1 0 1 1 1 1 2 2 2 2 2 2 1 1 1 1 1 1 1 1 0 0 0 0 0 0 0 0 0 0 0 0 0 0 0 0 0 0
2 2 1 1 1 -0 0 2 2 1 1 0 0 1 1 1 1 1 1 1 1 1 1 1 0 0 0 0 -0 -0 -0 -0 -0 -0 -0 -0 -0 -0 -1 -1 -1 -1 -1 -1 -0 -0 -0 -0 -0
Wind_Speed
10 7 2 4 5 4 2 3 2 0 0 0 2 5 7 4 3 4 1 1 3 3 4 5 6 7 9 9 9 9 8 8 9 9 10 10 10 11 11 12 12 12 12 13 13 14 14 15 15
5 2 4 5 4 1 4 3 2 3 3 3 3 4 5 3 2 4 1 0 4 4 5 5 6 8 9 9 9 9 8 8 8 9 9 9 10 10 11 11 12 12 12 12 13 14 14 14 15
4 2 4 4 3 5 4 3 3 2 0 2 3 4 4 2 2 2 1 2 5 5 5 6 7 8 8 9 9 9 9 8 8 8 9 9 10 10 11 11 11 11 12 12 13 13 13 14 14
3 4 4 3 3 4 5 4 3 1 2 3 4 4 3 3 1 1 3 4 6 5 5 6 8 8 8 8 9 9 9 8 8 8 9 9 10 10 11 11 11 11 11 12 12 12 13 13 13
4 4 3 0 4 3 3 3 2 1 1 1 3 4 2 4 4 5 4 5 5 4 5 6 7 8 8 8 8 8 8 8 8 9 9 9 10 10 10 10 11 11 11 11 11 12 12 12 12
4 4 3 3 4 3 3 2 1 1 1 1 3 4 2 2 4 3 4 5 6 5 5 5 5 6 7 7 8 8 8 8 8 8 9 9 9 9 10 10 10 10 10 10 10 10 11 11 11
4 4 4 5 4 4 3 1 2 2 1 0 3 5 1 1 1 3 4 5 6 6 6 6 5 5 5 6 7 7 7 8 8 8 8 8 9 9 9 9 9 10 10 10 10 9 10 10 10
4 4 2 3 4 4 2 1 0 1 1 1 3 6 4 4 2 4 5 5 5 5 5 5 6 5 5 6 7 7 8 8 8 8 8 8 8 8 9 9 9 9 9 10 9 9 9 9 9
4 3 3 4 4 3 1 1 2 1 3 3 3 2 2 5 5 6 4 4 4 4 3 4 5 5 5 5 6 7 8 8 7 7 7 7 7 7 7 8 9 9 8 9 9 9 8 8 8
4 4 6 3 3 2 1 1 0 1 1 1 2 3 4 6 6 6 4 3 2 1 1 3 3 4 5 5 5 5 6 7 7 7 7 7 7 7 7 7 8 9 8 8 8 8 8 8 7
3 5 4 2 1 1 1 2 1 2 2 3 4 5 5 5 5 6 5 4 3 2 1 2 2 3 4 4 5 5 5 6 7 7 7 6 7 6 7 6 6 7 7 7 7 7 7 7 6
3 3 3 2 1 0 1 1 2 1 4 2 4 7 7 7 6 6 6 4 2 2 1 1 2 3 4 4 4 4 4 5 5 5 6 6 5 5 5 5 5 5 5 5 5 5 6 7 7
3 3 2 1 1 0 0 1 2 4 4 0 4 5 6 7 6 5 4 3 3 3 2 1 2 2 3 3 3 3 4 4 4 5 5 5 4 3 4 4 4 5 5 5 4 4 5 5 5
2 2 2 2 2 1 2 4 2 6 3 2 3 4 5 6 6 4 3 3 3 3 3 2 2 2 3 3 3 3 3 4 4 4 4 5 4 4 3 3 3 3 4 4 4 4 4 4 4
1 1 3 3 3 2 1 5 6 6 3 2 2 3 4 5 5 5 5 5 5 4 3 3 3 3 3 3 3 3 3 4 4 3 3 4 4 4 3 3 3 3 3 4 4 4 4 4 4
2 1 4 5 3 3 3 8 6 3 4 4 4 4 3 4 4 4 4 4 4 4 3 3 3 2 3 3 3 3 3 4 4 3 3 4 4 4 4 3 2 3 3 3 3 3 2 2 3
1 2 5 5 3 2 5 8 6 3 4 5 5 4 4 3 3 3 3 4 4 4 4 4 3 3 3 3 3 4 3 3 3 3 3 3 3 4 4 3 2 3 3 3 2 2 2 2 2
4 4 4 5 3 2 5 9 8 4 5 6 5 4 4 4 5 3 2 3 3 3 3 3 3 3 2 3 3 3 3 2 2 3 3 3 3 3 4 3 3 3 3 2 2 2 2 2 2
4 4 6 6 3 2 7 10 11 7 5 6 5 5 5 6 4 2 2 2 2 2 2 2 2 2 3 3 3 2 2 1 1 2 2 2 3 3 4 3 3 3 2 2 2 2 2 2 2
4 5 6 5 2 3 6 10 9 7 7 7 7 7 6 4 2 1 1 2 2 3 3 3 3 2 2 2 2 2 2 1 1 1 2 2 2 2 3 3 3 2 2 2 2 2 2 1 1
4 5 6 5 5 3 4 8 6 5 4 4 6 6 5 6 5 4 2 2 2 3 4 3 3 3 2 2 2 2 2 1 1 0 0 1 2 2 2 3 3 2 2 2 2 2 3 2 1
6 4 4 4 2 5 1 5 7 4 4 5 6 5 5 5 5 4 3 3 4 4 3 3 3 3 2 3 3 3 3 2 2 2 1 1 1 2 2 2 3 3 2 2 2 1 2 4 3
5 3 2 2 3 4 2 4 8 2 5 6 6 6 6 5 5 5 4 5 4 3 3 2 2 2 2 3 3 3 2 1 1 1 1 1 0 1 1 1 2 2 2 2 2 2 2 2 3
1 2 3 2 2 4 6 6 7 4 6 4 5 5 5 4 4 3 3 2 1 2 2 2 3 2 2 2 3 3 3 2 2 1 1 1 1 0 0 1 1 1 1 2 2 2 2 2 2
3 3 3 4 2 6 2 4 8 6 4 4 5 5 4 3 3 2 2 2 2 2 3 2 3 2 2 2 2 2 3 3 3 2 2 1 1 1 2 1 1 1 1 2 2 2 2 3 2
2 4 4 4 5 5 2 6 7 4 3 3 2 2 2 2 2 2 3 2 2 3 3 3 3 2 2 2 2 2 2 2 2 2 2 2 2 2 1 1 1 1 1 2 2 2 2 2 3
2 3 3 3 2 4 6 7 7 2 3 3 1 0 2 3 2 2 2 2 2 2 3 3 3 2 2 2 1 1 1 1 2 2 1 1 1 1 1 1 1 1 2 2 3 2 3 3 4
2 3 3 3 2 5 6 5 5 5 5 4 3 3 3 3 2 2 2 2 2 2 2 2 2 2 2 1 1 1 1 1 1 1 1 1 1 1 1 1 2 2 2 2 2 3 3 3 3
3 2 3 2 3 4 5 7 5 5 4 4 5 4 3 3 3 2 2 1 1 1 1 1 1 1 1 1 1 1 1 1 0 1 1 2 1 1 1 2 2 2 2 2 3 3 3 4 4
4 5 6 4 5 4 4 8 4 4 3 3 4 4 3 3 3 2 1 0 0 0 0 0 1 0 0 0 1 1 1 0 0 1 1 1 1 1 2 2 2 2 2 2 3 4 4 4 5
Wind_Direction
334 342 57 56 58 54 238 255 217 235 71 156 98 100 108 100 110 138 157 110 107 123 139 132 122 113 110 106 101 96 90 89 90 90 88 87 86 86 84 83 83 80 80 80 80 78 77 75 76
337 11 56 63 97 147 260 255 214 225 191 146 79 87 86 84 72 110 99 260 114 121 130 129 120 112 111 108 104 102 96 94 94 94 92 90 89 89 87 85 83 81 79 81 81 80 78 77 78
334 71 85 82 132 187 214 226 209 264 239 123 85 60 93 113 115 151 220 139 105 107 122 127 124 115 110 111 106 103 99 98 98 97 93 93 93 92 91 87 83 81 79 80 83 83 81 80 80
46 50 60 88 211 228 205 219 184 160 16 43 106 80 72 26 145 152 110 101 99 98 115 127 126 118 109 109 109 104 102 101 101 99 97 98 98 96 95 91 87 84 83 82 83 85 83 81 80
61 80 78 114 242 252 235 238 162 149 155 38 109 112 82 357 40 81 95 91 95 91 94 120 124 119 112 107 112 110 105 103 101 99 98 101 101 98 96 95 91 88 86 84 83 86 86 83 82
61 76 118 206 231 252 262 229 161 124 166 41 97 115 141 9 60 80 82 85 87 86 80 92 108 115 113 110 107 110 108 104 101 99 99 97 96 100 96 93 92 90 87 85 84 87 87 85 82
112 117 176 195 211 248 261 290 149 166 116 354 121 122 164 299 81 99 87 85 82 77 71 66 73 82 94 103 106 103 102 104 100 96 94 94 94 91 95 91 89 87 86 85 83 86 88 85 81
130 119 171 204 205 240 281 349 72 145 174 27 99 140 201 224 161 99 85 77 73 67 63 59 63 66 74 87 93 94 93 95 99 96 91 89 89 90 88 86 87 86 86 86 85 86 89 86 83
103 99 202 215 199 225 305 56 0 10 101 56 50 137 187 142 121 99 82 65 59 57 50 58 59 61 67 83 91 92 90 89 92 92 91 88 80 82 83 81 83 84 85 86 84 84 86 84 82
104 170 214 213 201 204 333 69 237 65 77 61 47 49 93 123 131 132 133 132 115 81 49 58 61 59 67 75 79 81 83 81 79 80 84 85 83 82 81 82 83 83 81 82 80 80 77 72 64
143 188 208 242 249 214 334 334 349 144 223 214 198 171 145 145 152 162 171 169 171 159 83 68 80 75 77 74 79 77 81 79 76 75 81 85 84 80 76 74 70 72 74 68 68 68 65 66 64
160 226 208 233 287 93 211 282 333 249 240 232 186 163 158 163 176 182 181 181 163 143 134 72 90 91 84 87 86 86 86 85 80 80 83 88 78 70 70 71 68 67 66 61 59 63 64 65 65
202 229 245 219 73 251 267 242 241 269 269 129 124 138 160 170 183 193 185 175 163 169 168 146 101 109 105 97 94 89 86 91 93 91 91 92 88 81 69 66 70 65 66 63 59 69 71 65 62
200 213 249 255 258 256 235 272 245 255 236 141 140 165 177 183 186 180 184 189 192 196 190 169 137 126 122 119 113 104 101 98 95 91 93 100 97 96 92 73 63 61 68 67 68 72 77 68 64
163 331 313 265 233 232 199 287 239 241 191 188 203 204 199 204 191 192 198 195 194 198 189 181 170 141 138 138 129 111 108 106 97 95 100 101 101 104 104 94 73 52 64 72 73 68 70 70 67
46 17 278 268 215 206 171 258 256 213 181 210 221 227 227 226 208 210 205 198 193 184 180 186 170 152 147 143 131 118 111 106 99 100 104 98 101 108 105 94 81 72 75 75 87 84 83 74 72
3 246 251 274 234 200 199 250 263 227 198 216 223 225 228 242 246 235 216 201 194 186 177 176 171 172 167 148 132 122 110 104 106 101 100 102 100 107 107 95 90 100 83 72 100 97 109 101 80
235 239 253 254 259 213 238 252 264 235 209 220 228 231 227 231 242 241 214 188 173 171 171 174 170 174 161 139 123 116 103 96 94 95 101 112 115 114 110 98 90 100 100 86 92 110 88 105 98
209 229 258 259 262 256 252 260 261 242 224 233 237 232 231 236 243 229 197 170 148 140 149 170 169 183 160 163 173 174 178 174 132 95 102 115 118 120 111 97 94 88 113 132 110 113 100 74 78
237 257 268 282 292 262 270 274 266 237 223 221 222 227 228 231 237 229 192 163 172 181 182 181 182 175 175 184 185 176 160 157 131 93 71 87 104 124 128 113 122 108 107 108 120 120 124 106 91
254 236 248 265 316 302 303 296 267 252 225 228 226 222 219 209 211 215 206 199 194 198 197 191 192 179 170 142 126 118 95 84 106 173 19 45 89 108 121 121 120 119 134 164 168 161 147 165 191
254 241 243 249 294 283 241 286 276 248 256 250 246 234 227 222 214 212 207 209 207 212 202 183 179 170 156 137 144 151 169 187 206 198 198 58 86 87 103 123 130 132 138 165 187 169 181 166 179
238 276 264 239 222 284 253 233 281 285 262 261 248 237 231 225 215 212 212 212 208 197 182 180 161 146 138 139 155 160 163 179 152 143 176 205 31 92 89 106 131 139 144 160 168 181 186 184 182
258 16 29 52 98 267 234 200 275 240 236 258 244 233 230 223 221 218 214 189 169 150 149 150 145 138 140 143 152 158 161 158 141 134 195 237 246 275 119 119 141 161 163 171 180 188 188 198 193
56 71 3 342 310 252 225 203 251 254 239 230 231 232 234 221 213 208 198 192 179 163 162 155 147 150 155 156 166 171 173 175 175 181 200 223 249 261 254 224 162 193 199 186 177 190 204 202 203
211 154 172 234 252 282 291 233 252 278 286 273 238 219 230 227 218 213 205 195 193 185 173 162 161 160 157 166 184 179 172 185 196 197 198 218 236 246 284 256 216 214 219 205 188 205 219 212 211
168 208 190 169 264 271 268 280 297 307 330 332 328 244 253 251 231 223 212 192 189 181 184 179 176 175 177 180 182 175 165 183 195 199 200 226 259 277 260 245 267 250 229 216 195 211 220 218 217
174 155 104 148 233 267 282 274 262 271 273 287 291 267 264 273 261 253 234 212 205 192 175 161 175 194 194 183 195 201 202 205 200 191 208 233 266 284 279 267 252 265 250 235 219 224 225 221 229
165 165 167 180 190 205 269 269 237 234 236 237 248 253 257 270 267 264 258 234 194 126 127 139 147 161 189 210 232 222 217 224 185 205 230 241 256 262 261 257 254 252 252 245 230 231 230 233 240
198 195 169 188 239 218 238 266 273 244 262 241 255 262 263 265 262 258 257 253 161 148 165 200 166 178 279 285 256 240 239 225 226 258 262 264 256 255 256 255 250 252 256 255 245 243 240 237 242
Height
1520 1520 1521 1522 1525 1534 1534 1528 1522 1521 1520 1520 1519 1519 1521 1525 1527 1533 1531 1529 1529 1530 1532 1533 1534 1534 1535 1535 1535 1535 1535 1536 1536 1536 1536 1536 1536 1536 1536 1536 1535 1535 1535 1534 1533 1533 1532 1531 1530
1519 1520 1522 1522 1531 1540 1535 1526 1522 1519 1519 1519 1519 1520 1521 1524 1526 1527 1527 1528 1529 1530 1532 1532 1533 1534 1534 1534 1535 1535 1535 1535 1535 1536 1536 1536 1536 1536 1536 1536 1536 1536 1536 1535 1535 1534 1534 1533 1532
1519 1520 1522 1525 1532 1535 1530 1522 1520 1518 1518 1518 1520 1521 1523 1525 1526 1527 1527 1528 1529 1530 1531 1532 1533 1533 1534 1534 1534 1535 1535 1535 1535 1535 1535 1536 1536 1536 1536 1536 1536 1537 1536 1536 1536 1536 1535 1535 1534
1519 1521 1522 1528 1530 1526 1523 1520 1518 1519 1518 1518 1519 1522 1524 1527 1527 1527 1527 1528 1529 1530 1531 1532 1533 1533 1533 1534 1534 1534 1534 1535 1535 1535 1535 1535 1536 1536 1536 1537 1537 1537 1537 1537 1537 1537 1537 1536 1537
1519 1520 1526 1531 1527 1523 1520 1518 1518 1518 1519 1519 1519 1522 1524 1526 1526 1526 1527 1528 1529 1530 1531 1532 1532 1533 1533 1533 1534 1534 1534 1535 1535 1535 1535 1535 1536 1536 1536 1537 1537 1538 1538 1538 1538 1538 1538 1538 1538
1519 1520 1531 1533 1527 1522 1519 1518 1518 1518 1519 1519 1520 1522 1525 1526 1526 1526 1527 1528 1528 1529 1530 1531 1531 1532 1532 1533 1533 1533 1534 1534 1534 1535 1535 1535 1536 1536 1536 1537 1537 1538 1538 1538 1538 1538 1539 1539 1539
1520 1524 1528 1527 1526 1522 1519 1518 1518 1518 1519 1520 1520 1522 1524 1525 1525 1526 1527 1528 1528 1528 1529 1530 1530 1531 1532 1532 1532 1533 1533 1534 1534 1534 1535 1535 1536 1536 1536 1537 1537 1538 1538 1538 1538 1539 1539 1539 1540
1518 1522 1524 1526 1524 1521 1518 1518 1518 1518 1519 1520 1520 1522 1523 1524 1524 1525 1526 1527 1527 1528 1528 1529 1529 1530 1530 1531 1532 1532 1532 1533 1533 1534 1534 1535 1535 1536 1536 1537 1537 1537 1538 1538 1538 1539 1539 1540 1540
1517 1525 1526 1523 1522 1520 1517 1517 1518 1519 1519 1519 1520 1521 1522 1522 1523 1524 1525 1525 1526 1527 1527 1528 1528 1529 1529 1530 1531 1531 1532 1532 1533 1533 1534 1534 1535 1535 1536 1536 1536 1537 1537 1537 1538 1539 1539 1540 1540
1516 1524 1520 1518 1518 1517 1517 1517 1518 1518 1518 1519 1519 1520 1521 1521 1521 1521 1522 1523 1523 1525 1526 1526 1527 1528 1528 1529 1529 1530 1530 1531 1532 1532 1533 1533 1534 1534 1535 1535 1536 1536 1536 1537 1538 1538 1539 1539 1540
1515 1518 1516 1517 1516 1516 1516 1517 1517 1517 1518 1518 1517 1518 1519 1519 1520 1520 1521 1521 1522 1523 1524 1525 1526 1526 1527 1527 1528 1528 1529 1530 1530 1531 1532 1532 1533 1533 1534 1534 1535 1535 1536 1536 1537 1538 1538 1539 1539
1515 1515 1515 1516 1515 1516 1516 1516 1517 1516 1516 1516 1517 1517 1517 1517 1518 1518 1519 1520 1521 1521 1522 1523 1524 1524 1525 1526 1526 1527 1527 1528 1529 1529 1530 1531 1531 1532 1532 1533 1534 1534 1534 1535 1536 1537 1537 1538 1539
1514 1515 1515 1515 1515 1515 1515 1516 1516 1515 1515 1515 1515 1515 1515 1515 1516 1517 1518 1518 1519 1520 1520 1521 1522 1523 1523 1524 1525 1525 1525 1526 1527 1528 1528 1529 1530 1530 1531 1532 1532 1533 1533 1534 1535 1536 1537 1537 1538
1514 1514 1514 1514 1514 1514 1514 1514 1515 1512 1513 1513 1513 1513 1513 1514 1514 1515 1515 1516 1516 1517 1518 1519 1519 1521 1521 1522 1522 1523 1524 1524 1525 1526 1526 1527 1528 1528 1529 1530 1530 1531 1532 1533 1533 1534 1535 1536 1537
1514 1515 1514 1513 1513 1513 1514 1514 1512 1510 1511 1511 1511 1511 1511 1512 1512 1512 1512 1513 1514 1514 1515 1516 1517 1518 1519 1519 1520 1521 1522 1522 1523 1524 1525 1525 1525 1526 1527 1527 1528 1529 1530 1531 1532 1533 1534 1534 1535
1514 1517 1518 1513 1512 1512 1517 1514 1509 1509 1509 1509 1509 1509 1509 1509 1509 1510 1510 1511 1511 1512 1513 1514 1514 1515 1515 1516 1517 1518 1519 1520 1521 1522 1523 1523 1523 1524 1524 1525 1526 1527 1528 1529 1529 1530 1531 1532 1532
1518 1521 1518 1514 1511 1511 1514 1512 1507 1507 1507 1507 1507 1506 1506 1506 1506 1507 1507 1508 1508 1509 1510 1510 1511 1512 1513 1514 1515 1516 1517 1517 1518 1519 1520 1521 1521 1521 1522 1522 1523 1524 1525 1526 1527 1528 1528 1529 1530
1520 1520 1516 1514 1511 1512 1512 1509 1505 1505 1505 1504 1504 1504 1503 1502 1503 1503 1504 1504 1505 1505 1506 1507 1508 1509 1510 1511 1512 1513 1514 1514 1515 1516 1517 1518 1518 1519 1520 1520 1521 1522 1523 1523 1524 1525 1526 1527 1528
1515 1516 1516 1513 1510 1511 1510 1507 1503 1501 1502 1501 1501 1500 1500 1499 1500 1500 1501 1501 1502 1502 1503 1504 1505 1506 1506 1507 1508 1509 1510 1511 1512 1513 1514 1515 1516 1516 1517 1517 1518 1519 1520 1521 1521 1522 1523 1524 1525
1514 1515 1515 1512 1510 1510 1509 1505 1499 1498 1497 1497 1497 1496 1496 1496 1496 1496 1497 1497 1498 1499 1499 1500 1501 1502 1503 1504 1506 1507 1508 1508 1509 1510 1511 1512 1513 1513 1514 1514 1515 1516 1517 1518 1518 1519 1520 1521 1522
1513 1514 1514 1513 1511 1510 1510 1504 1498 1494 1494 1493 1493 1493 1492 1492 1492 1492 1493 1493 1494 1495 1495 1496 1498 1499 1500 1501 1503 1504 1505 1505 1506 1507 1507 1509 1510 1510 1510 1511 1512 1513 1514 1515 1515 1516 1516 1517 1519
1513 1511 1511 1512 1515 1516 1512 1510 1496 1494 1492 1491 1490 1489 1489 1489 1489 1489 1489 1490 1490 1491 1492 1494 1495 1496 1497 1498 1499 1499 1500 1500 1501 1503 1504 1505 1506 1506 1507 1507 1508 1510 1510 1511 1512 1512 1513 1514 1515
1511 1510 1511 1511 1514 1517 1514 1514 1498 1495 1493 1489 1487 1486 1486 1486 1486 1486 1487 1487 1487 1488 1489 1490 1491 1492 1493 1494 1495 1495 1496 1497 1498 1499 1500 1501 1502 1503 1503 1504 1504 1505 1506 1507 1508 1509 1510 1510 1511
1510 1511 1513 1516 1518 1517 1509 1513 1500 1496 1489 1486 1484 1483 1483 1484 1484 1484 1485 1485 1485 1485 1486 1487 1488 1489 1490 1490 1491 1492 1493 1494 1495 1495 1496 1497 1498 1499 1499 1500 1500 1501 1502 1503 1504 1505 1506 1507 1507
1512 1517 1520 1520 1521 1512 1506 1507 1498 1487 1484 1483 1482 1482 1482 1482 1482 1482 1482 1481 1482 1482 1483 1484 1484 1485 1486 1487 1488 1488 1489 1490 1491 1491 1492 1493 1493 1494 1494 1495 1495 1496 1497 1499 1500 1501 1502 1503 1503
1514 1515 1520 1521 1520 1513 1507 1505 1491 1484 1483 1481 1481 1481 1481 1480 1480 1479 1479 1479 1479 1479 1480 1480 1481 1482 1483 1483 1484 1485 1486 1486 1487 1488 1488 1489 1489 1490 1490 1491 1492 1492 1493 1494 1495 1496 1497 1498 1499
1514 1517 1515 1522 1523 1522 1510 1502 1490 1483 1482 1481 1480 1480 1479 1479 1478 1478 1477 1477 1477 1477 1477 1478 1479 1479 1480 1480 1481 1481 1482 1483 1483 1484 1484 1485 1485 1486 1486 1487 1487 1488 1489 1490 1490 1491 1492 1493 1494
1512 1515 1521 1521 1520 1518 1509 1505 1494 1484 1482 1482 1481 1480 1478 1478 1477 1476 1475 1475 1475 1475 1476 1476 1476 1477 1477 1477 1477 1478 1478 1479 1479 1479 1480 1481 1481 1481 1482 1482 1483 1483 1484 1485 1486 1486 1487 1488 1489
1514 1515 1517 1521 1521 1520 1516 1501 1484 1482 1480 1481 1480 1478 1478 1477 1476 1475 1474 1474 1474 1473 1473 1473 1474 1474 1474 1474 1474 1474 1474 1475 1475 1475 1476 1476 1476 1477 1477 1478 1478 1479 1479 1480 1480 1480 1481 1482 1483
1509 1510 1514 1518 1519 1520 1516 1499 1480 1480 1478 1478 1478 1477 1476 1476 1475 1474 1473 1472 1471 1471 1471 1471 1471 1471 1471 1471 1471 1471 1471 1471 1471 1471 1472 1472 1472 1472 1473 1473 1473 1474 1474 1475 1475 1475 1476 1476 1476